This is the latest recevied weather packets stored in our database for station/object WB4MOZ-3. If no packets are shown the sender has not sent any weather packets the latest 10 day(s).
| Time | Temp. | Humidity | Pressure | Rain* | Wind** | Luminosity | Snow |
|---|---|---|---|---|---|---|---|
| 1777642964 | 28.89° C | 71% | 1011.8 hPa | 0 mm | - | - | - |
| 1777642664 | 28.33° C | 74% | 1011.8 hPa | 0 mm | - | - | - |
| 1777642063 | 27.22° C | 80% | 1011.7 hPa | 0 mm | - | - | - |
| 1777641764 | 26.67° C | 80% | 1011.7 hPa | 0 mm | - | - | - |
| 1777641463 | 26.67° C | 80% | 1011.6 hPa | 0 mm | - | - | - |
| 1777641163 | 26.67° C | 80% | 1011.6 hPa | 0 mm | - | - | - |
| 1777640863 | 26.67° C | 80% | 1011.6 hPa | 0 mm | - | - | - |
| 1777640563 | 26.67° C | 80% | 1011.6 hPa | 0 mm | - | - | - |
| 1777639963 | 26.67° C | 86% | 1011.7 hPa | 0 mm | - | - | - |
| 1777639664 | 26.11° C | 88% | 1011.8 hPa | 0 mm | - | - | - |
| 1777639064 | 25.56° C | 90% | 1011.9 hPa | 0 mm | - | - | - |
| 1777637864 | 24.44° C | 92% | 1011.8 hPa | 0 mm | - | - | - |
| 1777637264 | 23.89° C | 92% | 1011.8 hPa | 0 mm | - | - | - |
| 1777636964 | 24.44° C | 92% | 1011.8 hPa | 0 mm | - | - | - |
| 1777636664 | 24.44° C | 92% | 1011.7 hPa | 0 mm | - | - | - |
| 1777636363 | 24.44° C | 93% | 1011.6 hPa | 0 mm | - | - | - |
| 1777636063 | 23.89° C | 93% | 1011.6 hPa | 0 mm | - | - | - |
| 1777636041 | 23.89° C | 93% | 1011.4 hPa | 0 mm | - | - | - |
| 1777635763 | 23.89° C | 93% | 1011.4 hPa | 0 mm | - | - | - |
| 1777635463 | 23.89° C | 94% | 1011.5 hPa | 0 mm | - | - | - |
| 1777635164 | 23.89° C | 94% | 1011.7 hPa | 0 mm | - | - | - |
| 1777634863 | 23.33° C | 94% | 1011.9 hPa | 0 mm | - | - | - |
| 1777634263 | 22.78° C | 94% | 1011.8 hPa | 0 mm | - | - | - |
| 1777633963 | 22.78° C | 94% | 1011.7 hPa | 0 mm | - | - | - |
| 1777633364 | 22.78° C | 93% | 1011.7 hPa | 0 mm | - | - | - |
* Rain latest hour (hover to see other rain measurements)
** Current wind speed in m/s (hover to see current wind gust speed)